Regional Weather Roundup
Issued by NWS

Home | Current Version | Previous Version | Text Only | Print | Product List | Glossary Off
Versions: 1 2 3 4 5 6 7 8 9 10 11 12 13 14 15 16 17 18 19 20 21 22 23 24 25 26 27 28 29 30 31 32 33 34 35 36 37 38 39 40 41 42 43 44 45 46 47 48 49 50

000
ASUS43 KFSD 301602
RWRSD

WEATHER ROUNDUP FOR SOUTH DAKOTA
NATIONAL WEATHER SERVICE SIOUX FALLS SD
1100 AM CDT TUE SEP 30 2014

NOTE: "FAIR" INDICATES FEW OR NO CLOUDS BELOW 12,000 FEET WITH NO
SIGNIFICANT WEATHER AND/OR OBSTRUCTIONS TO VISIBILITY.


SDZ001>005-009-010-012>017-301700-
NORTHWEST AND NORTH CENTRAL SOUTH DAKOTA

CITY           SKY/WX    TMP DP  RH WIND       PRES   REMARKS
BUFFALO          N/A     54  53  97 NE13      29.49F
FAITH            N/A     57  56  96 E18       29.44F
MOBRIDGE       CLOUDY    57  54  89 SE25G32   29.55F
$$

SDZ012>016-024>037-041>051-057-063-072>074-301700-
SOUTHWEST AND SOUTH CENTRAL SOUTH DAKOTA

CITY           SKY/WX    TMP DP  RH WIND       PRES   REMARKS
RAPID CTY ARPT CLOUDY    54  49  83 NW8       29.45R
PIERRE         MOSUNNY   67  48  50 S29G39    29.50F
CUSTER         RAIN      48  44  86 W10       29.55R FOG
ELLSWORTH AFB  CLOUDY    54  52  91 NW9       29.45R
PHILIP         CLOUDY    59  51  75 S24G33    29.35F
PINE RIDGE     CLOUDY    55  51  86 SW21      29.54R
WINNER         FAIR      68  49  50 S21G29    29.60F
$$

SDZ004>011-016>023-039-040-301700-
NORTHEAST SOUTH DAKOTA

CITY           SKY/WX    TMP DP  RH WIND       PRES   REMARKS
ABERDEEN       RAIN      55  52  89 E18G28    29.72F FOG
WATERTOWN      CLOUDY    50  46  86 SE13G23   29.81S
SISSETON         N/A     48  44  86 SE16G25   29.85
$$

SDZ017-020-022-023-036>040-048>070-301700-
SOUTHEAST SOUTH DAKOTA

CITY           SKY/WX    TMP DP  RH WIND       PRES   REMARKS
SIOUX FALLS    RAIN      58  54  86 SE15      29.82F FOG
HURON          LGT RAIN  58  56  93 SE13G28   29.68F
CHAMBERLAIN    MOSUNNY   67  53  59 S21G31    29.61F
MITCHELL       CLOUDY    61  59  93 SE22G29   29.71F
YANKTON        PTSUNNY   63  59  88 E14G20    29.76F
$$

ABBREVIATIONS USED IN REMARKS
   TC - TEMPERATURE IN CELSIUS
  WCI - WIND CHILL INDEX
   HX - HEAT INDEX
  VSB - VISIBILITY




USA.gov is the U.S. government's official web portal to all federal, state and local government web resources and services.